EW8775 Weather Reports


Display with metric or nautical units.
time (UTC)temp
F
wind
direction
speed
MPH
gust
MPH
rain 1hr
in
rain 24hr
in
rain mn
in
humidity
%
barometer
mb
20260503053017 58 90 1.0 3.0 0.00 0.00 0.00 25 1015.6
20260503050017 60 0 1.0 4.0 0.00 0.00 0.00 25 1015.7
20260503043017 61 135 2.0 4.0 0.00 0.00 0.00 21 1015.3
20260503040017 61 90 1.0 4.0 0.00 0.00 0.00 22 1014.8
20260503033018 63 23 1.0 7.0 0.00 0.00 0.00 22 1014.3
20260503030017 65 23 4.0 7.0 0.00 0.00 0.00 18 1013.6
20260503023017 65 23 2.0 8.0 0.00 0.00 0.00 20 1013.6
20260503020016 68 0.0 2.0 0.00 0.00 0.00 22 1014.1
20260503013017 69 0.0 2.0 0.00 0.00 0.00 14 1014.3
20260503010016 70 203 1.0 3.0 0.00 0.00 0.00 14 1014.5
20260503003016 71 0.0 3.0 0.00 0.00 0.00 15 1015.1
20260503000056 71 203 1.0 9.0 0.00 0.00 0.00 13 1015.4
20260502233017 72 293 1.0 8.0 0.00 0.00 0.00 14 1016.0
20260502230016 72 180 3.0 9.0 0.00 0.00 0.00 13 1016.7
20260502223016 72 180 2.0 9.0 0.00 0.00 0.00 15 1016.9
20260502220016 71 180 3.0 13.0 0.00 0.00 0.00 15 1017.8
20260502213056 70 203 2.0 11.0 0.00 0.00 0.00 18 1018.2
20260502210016 70 225 2.0 12.0 0.00 0.00 0.00 18 1019.0
20260502203056 70 203 2.0 9.0 0.00 0.00 0.00 17 1019.4
20260502200016 69 203 2.0 9.0 0.00 0.00 0.00 17 1019.9
20260502193016 67 180 3.0 9.0 0.00 0.00 0.00 18 1019.9
20260502190016 66 203 3.0 10.0 0.00 0.00 0.00 24 1020.1
20260502183016 64 203 3.0 9.0 0.00 0.00 0.00 30 1020.5
20260502163016 58 180 1.0 3.0 0.00 0.00 0.00 44 1020.8
20260502123017 45 90 2.0 4.0 0.00 0.00 0.00 46 1019.8
20260502113017 46 45 2.0 4.0 0.00 0.00 0.00 46 1019.8
20260502110017 47 45 1.0 3.0 0.00 0.00 0.00 42 1020.1
20260502103017 48 45 2.0 4.0 0.00 0.00 0.00 44 1020.2